| time (UTC) | temp F | wind direction | speed knots | gust knots | rain 1hr in | rain 24hr in | rain mn in | humidity % | barometer mb |
| 20260906050033 | 59 | 31 | 0.9 | 3.5 | 0.00 | 0.00 | 0.00 | 91 | 1018.3 |
| 20260906045516 | 59 | 8 | 0.0 | 4.3 | 0.00 | 0.00 | 0.00 | 91 | 1018.2 |
| 20260906045017 | 59 | 11 | 0.9 | 4.3 | 0.00 | 0.00 | 0.00 | 90 | 1018.3 |
| 20260906044537 | 59 | 13 | 0.9 | 4.3 | 0.00 | 0.00 | 0.00 | 90 | 1018.3 |
| 20260906044020 | 59 | 0 | 0.9 | 4.3 | 0.00 | 0.00 | 0.00 | 90 | 1018.2 |
| 20260906043519 | 59 | 347 | 0.0 | 1.7 | 0.00 | 0.00 | 0.00 | 91 | 1018.3 |
| 20260906043035 | 59 | 0 | 0.0 | 1.7 | 0.00 | 0.00 | 0.00 | 90 | 1018.3 |
| 20260906042517 | 59 | 0 | 0.0 | 1.7 | 0.00 | 0.00 | 0.00 | 90 | 1018.1 |
| 20260906042018 | 59 | 0 | 0.0 | 1.7 | 0.00 | 0.00 | 0.00 | 90 | 1018.0 |
| 20260906041534 | 59 | 326 | 0.0 | 1.7 | 0.00 | 0.00 | 0.00 | 90 | 1018.0 |
| 20260906041017 | 59 | 0 | 0.0 | 2.6 | 0.00 | 0.00 | 0.00 | 90 | 1018.0 |
| 20260906040518 | 59 | 0 | 0.0 | 2.6 | 0.00 | 0.00 | 0.00 | 90 | 1017.9 |
| 20260906040038 | 59 | 346 | 0.9 | 2.6 | 0.00 | 0.00 | 0.00 | 90 | 1017.9 |
| 20260906035519 | 60 | 0 | 0.0 | 1.7 | 0.00 | 0.00 | 0.00 | 90 | 1017.9 |
| 20260906035019 | 60 | 0 | 0.0 | 1.7 | 0.00 | 0.00 | 0.00 | 89 | 1017.8 |
| 20260906034543 | 60 | 0 | 0.0 | 3.5 | 0.00 | 0.00 | 0.00 | 89 | 1017.7 |
| 20260906034016 | 60 | 356 | 0.9 | 3.5 | 0.00 | 0.00 | 0.00 | 88 | 1017.8 |
| 20260906033518 | 60 | 15 | 0.0 | 2.6 | 0.00 | 0.00 | 0.00 | 88 | 1017.8 |
| 20260906033034 | 60 | 0 | 0.0 | 2.6 | 0.00 | 0.00 | 0.00 | 88 | 1017.8 |
| 20260906032517 | 60 | 0 | 0.0 | 0.9 | 0.00 | 0.00 | 0.00 | 88 | 1017.8 |
| 20260906032018 | 60 | 0 | 0.0 | 1.7 | 0.00 | 0.00 | 0.00 | 87 | 1017.8 |
| 20260906031538 | 60 | 0 | 0.0 | 2.6 | 0.00 | 0.00 | 0.00 | 87 | 1017.9 |
| 20260906031017 | 61 | 0 | 0.0 | 2.6 | 0.00 | 0.00 | 0.00 | 87 | 1017.9 |
| 20260906030518 | 61 | 13 | 0.0 | 2.6 | 0.00 | 0.00 | 0.00 | 86 | 1017.8 |
| 20260906030037 | 61 | 5 | 0.0 | 2.6 | 0.00 | 0.00 | 0.00 | 86 | 1017.8 |
| 20260906025517 | 61 | 14 | 0.9 | 2.6 | 0.00 | 0.00 | 0.00 | 86 | 1017.8 |
| 20260906025025 | 61 | 0 | 0.0 | 4.3 | 0.00 | 0.00 | 0.00 | 85 | 1017.8 |
| 20260906024534 | 62 | 0 | 1.7 | 4.3 | 0.00 | 0.00 | 0.00 | 85 | 1017.8 |
| 20260906024018 | 62 | 329 | 1.7 | 3.5 | 0.00 | 0.00 | 0.00 | 85 | 1018.0 |
| 20260906023519 | 62 | 9 | 0.9 | 2.6 | 0.00 | 0.00 | 0.00 | 85 | 1017.9 |
| 20260906023036 | 62 | 0 | 0.0 | 2.6 | 0.00 | 0.00 | 0.00 | 84 | 1018.1 |
| 20260906022516 | 62 | 347 | 0.9 | 2.6 | 0.00 | 0.00 | 0.00 | 84 | 1018.0 |
| 20260906022021 | 62 | 338 | 0.0 | 2.6 | 0.00 | 0.00 | 0.00 | 84 | 1018.0 |
| 20260906021535 | 63 | 333 | 0.0 | 3.5 | 0.00 | 0.00 | 0.00 | 84 | 1018.0 |
| 20260906021017 | 63 | 28 | 0.0 | 3.5 | 0.00 | 0.00 | 0.00 | 83 | 1018.0 |
| 20260906020517 | 63 | 0 | 0.0 | 3.5 | 0.00 | 0.00 | 0.00 | 83 | 1018.0 |
| 20260906020046 | 63 | 5 | 0.0 | 2.6 | 0.00 | 0.00 | 0.00 | 84 | 1018.0 |
| 20260906015519 | 64 | 6 | 0.0 | 1.7 | 0.00 | 0.00 | 0.00 | 83 | 1017.9 |
| 20260906015019 | 64 | 328 | 0.0 | 1.7 | 0.00 | 0.00 | 0.00 | 83 | 1017.9 |
| 20260906014549 | 64 | 0 | 0.0 | 3.5 | 0.00 | 0.00 | 0.00 | 83 | 1017.9 |
| 20260906014020 | 64 | 359 | 0.0 | 3.5 | 0.00 | 0.00 | 0.00 | 82 | 1017.9 |
| 20260906013519 | 64 | 343 | 0.0 | 2.6 | 0.00 | 0.00 | 0.00 | 82 | 1017.9 |
| 20260906013035 | 65 | 0 | 0.0 | 4.3 | 0.00 | 0.00 | 0.00 | 81 | 1017.9 |
| 20260906012515 | 65 | 352 | 0.9 | 4.3 | 0.00 | 0.00 | 0.00 | 81 | 1017.9 |
| 20260906012017 | 65 | 6 | 1.7 | 3.5 | 0.00 | 0.00 | 0.00 | 80 | 1017.7 |
| 20260906011540 | 65 | 0 | 0.0 | 2.6 | 0.00 | 0.00 | 0.00 | 80 | 1017.5 |
| 20260906011023 | 65 | 343 | 0.0 | 4.3 | 0.00 | 0.00 | 0.00 | 79 | 1017.4 |
| 20260906010518 | 66 | 0 | 0.0 | 4.3 | 0.00 | 0.00 | 0.00 | 79 | 1017.3 |
| 20260906010039 | 66 | 0 | 0.9 | 5.2 | 0.00 | 0.00 | 0.00 | 79 | 1017.2 |
| 20260906005518 | 66 | 6 | 1.7 | 5.2 | 0.00 | 0.00 | 0.00 | 78 | 1017.1 |
| 20260906005021 | 66 | 340 | 1.7 | 4.3 | 0.00 | 0.00 | 0.00 | 78 | 1017.2 |
| 20260906004538 | 67 | 39 | 0.9 | 3.5 | 0.00 | 0.00 | 0.00 | 77 | 1017.1 |
| 20260906004021 | 67 | 48 | 0.9 | 4.3 | 0.00 | 0.00 | 0.00 | 76 | 1017.1 |
| 20260906003515 | 67 | 359 | 0.9 | 5.2 | 0.00 | 0.00 | 0.00 | 75 | 1017.1 |
| 20260906003046 | 67 | 0 | 0.9 | 5.2 | 0.00 | 0.00 | 0.00 | 75 | 1017.1 |
| 20260906002517 | 68 | 18 | 1.7 | 7.0 | 0.00 | 0.00 | 0.00 | 74 | 1017.2 |
| 20260906002019 | 68 | 19 | 0.9 | 7.0 | 0.00 | 0.00 | 0.00 | 73 | 1017.2 |
| 20260906001537 | 68 | 31 | 2.6 | 7.8 | 0.00 | 0.00 | 0.00 | 73 | 1017.1 |
| 20260906001017 | 69 | 65 | 1.7 | 7.8 | 0.00 | 0.00 | 0.00 | 72 | 1017.2 |
| 20260906000520 | 69 | 50 | 3.5 | 7.8 | 0.00 | 0.00 | 0.00 | 71 | 1017.1 |
| 20260906000035 | 69 | 15 | 2.6 | 7.8 | 0.00 | 0.00 | 0.00 | 71 | 1017.0 |
| 20260905235518 | 69 | 34 | 4.3 | 8.7 | 0.00 | 0.00 | 0.00 | 70 | 1017.0 |
| 20260905235017 | 70 | 356 | 3.5 | 8.7 | 0.00 | 0.00 | 0.00 | 69 | 1017.0 |
| 20260905234537 | 70 | 38 | 3.5 | 9.6 | 0.00 | 0.00 | 0.00 | 68 | 1016.9 |
| 20260905234019 | 71 | 15 | 3.5 | 9.6 | 0.00 | 0.00 | 0.00 | 67 | 1017.0 |
| 20260905233516 | 71 | 27 | 3.5 | 9.6 | 0.00 | 0.00 | 0.00 | 67 | 1017.0 |
| 20260905233033 | 71 | 27 | 5.2 | 14.8 | 0.00 | 0.00 | 0.00 | 66 | 1017.0 |
| 20260905232517 | 72 | 23 | 5.2 | 14.8 | 0.00 | 0.00 | 0.00 | 65 | 1016.9 |
| 20260905232026 | 72 | 318 | 7.8 | 14.8 | 0.00 | 0.00 | 0.00 | 64 | 1017.0 |
| 20260905231540 | 72 | 20 | 4.3 | 11.3 | 0.00 | 0.00 | 0.00 | 67 | 1017.1 |
| 20260905231020 | 72 | 14 | 3.5 | 11.3 | 0.00 | 0.00 | 0.00 | 66 | 1017.0 |
| 20260905230518 | 73 | 36 | 7.0 | 10.4 | 0.00 | 0.00 | 0.00 | 65 | 1016.9 |
| 20260905230035 | 73 | 323 | 1.7 | 10.4 | 0.00 | 0.00 | 0.00 | 67 | 1016.8 |
| 20260905225515 | 73 | 356 | 3.5 | 11.3 | 0.00 | 0.00 | 0.00 | 67 | 1016.8 |
| 20260905225017 | 73 | 3 | 7.0 | 11.3 | 0.00 | 0.00 | 0.00 | 65 | 1016.7 |
| 20260905224535 | 73 | 35 | 4.3 | 13.0 | 0.00 | 0.00 | 0.00 | 65 | 1016.7 |
| 20260905224015 | 74 | 33 | 6.1 | 13.0 | 0.00 | 0.00 | 0.00 | 64 | 1016.6 |
| 20260905223516 | 74 | 24 | 6.1 | 13.0 | 0.00 | 0.00 | 0.00 | 63 | 1016.5 |
| 20260905223038 | 74 | 355 | 7.8 | 13.0 | 0.00 | 0.00 | 0.00 | 63 | 1016.5 |
| 20260905222528 | 75 | 356 | 6.1 | 10.4 | 0.00 | 0.00 | 0.00 | 62 | 1016.4 |
| 20260905222020 | 75 | 39 | 2.6 | 7.0 | 0.00 | 0.00 | 0.00 | 61 | 1016.4 |
| 20260905221534 | 75 | 0 | 1.7 | 7.8 | 0.00 | 0.00 | 0.00 | 61 | 1016.3 |
| 20260905221018 | 75 | 359 | 4.3 | 11.3 | 0.00 | 0.00 | 0.00 | 60 | 1016.3 |
| 20260905220518 | 75 | 6 | 2.6 | 11.3 | 0.00 | 0.00 | 0.00 | 60 | 1016.3 |
| 20260905220041 | 75 | 14 | 5.2 | 10.4 | 0.00 | 0.00 | 0.00 | 59 | 1016.3 |
| 20260905215517 | 75 | 46 | 4.3 | 9.6 | 0.00 | 0.00 | 0.00 | 59 | 1016.3 |
| 20260905215017 | 75 | 0 | 2.6 | 7.0 | 0.00 | 0.00 | 0.00 | 60 | 1016.2 |
| 20260905214535 | 75 | 0 | 1.7 | 7.0 | 0.00 | 0.00 | 0.00 | 60 | 1016.3 |
| 20260905214016 | 75 | 50 | 0.9 | 13.0 | 0.00 | 0.00 | 0.00 | 59 | 1016.2 |
| 20260905213520 | 75 | 68 | 4.3 | 13.0 | 0.00 | 0.00 | 0.00 | 58 | 1016.2 |
| 20260905213041 | 75 | 317 | 6.1 | 13.0 | 0.00 | 0.00 | 0.00 | 58 | 1016.3 |
| 20260905212524 | 75 | 331 | 4.3 | 8.7 | 0.00 | 0.00 | 0.00 | 60 | 1016.3 |
| 20260905212017 | 75 | 354 | 1.7 | 11.3 | 0.00 | 0.00 | 0.00 | 60 | 1016.3 |
| 20260905211540 | 75 | 10 | 5.2 | 12.2 | 0.00 | 0.00 | 0.00 | 60 | 1016.4 |
| 20260905211020 | 76 | 1 | 4.3 | 12.2 | 0.00 | 0.00 | 0.00 | 60 | 1016.2 |
| 20260905210516 | 76 | 358 | 5.2 | 11.3 | 0.00 | 0.00 | 0.00 | 58 | 1016.2 |
| 20260905210034 | 76 | 10 | 1.7 | 13.0 | 0.00 | 0.00 | 0.00 | 60 | 1016.2 |
| 20260905205522 | 76 | 1 | 2.6 | 13.0 | 0.00 | 0.00 | 0.00 | 59 | 1016.2 |
| 20260905205019 | 76 | 18 | 3.5 | 8.7 | 0.00 | 0.00 | 0.00 | 58 | 1016.2 |
| 20260905204543 | 76 | 352 | 2.6 | 9.6 | 0.00 | 0.00 | 0.00 | 58 | 1016.2 |
| 20260905204023 | 76 | 46 | 3.5 | 9.6 | 0.00 | 0.00 | 0.00 | 58 | 1016.1 |
| 20260905203519 | 76 | 43 | 4.3 | 9.6 | 0.00 | 0.00 | 0.00 | 57 | 1016.1 |
| 20260905203036 | 76 | 10 | 4.3 | 11.3 | 0.00 | 0.00 | 0.00 | 57 | 1016.2 |
| 20260905202516 | 76 | 309 | 4.3 | 11.3 | 0.00 | 0.00 | 0.00 | 56 | 1016.2 |
| 20260905202016 | 76 | 8 | 4.3 | 11.3 | 0.00 | 0.00 | 0.00 | 57 | 1016.2 |
| 20260905201538 | 76 | 331 | 4.3 | 9.6 | 0.00 | 0.00 | 0.00 | 55 | 1016.2 |
| 20260905201019 | 76 | 11 | 2.6 | 8.7 | 0.00 | 0.00 | 0.00 | 56 | 1016.2 |
| 20260905200519 | 76 | 79 | 2.6 | 6.1 | 0.00 | 0.00 | 0.00 | 57 | 1016.3 |
| 20260905200051 | 76 | 74 | 2.6 | 7.8 | 0.00 | 0.00 | 0.00 | 57 | 1016.4 |
| 20260905195521 | 76 | 16 | 3.5 | 7.8 | 0.00 | 0.00 | 0.00 | 56 | 1016.5 |
| 20260905195023 | 76 | 340 | 4.3 | 7.8 | 0.00 | 0.00 | 0.00 | 56 | 1016.6 |
| 20260905194545 | 76 | 11 | 3.5 | 11.3 | 0.00 | 0.00 | 0.00 | 57 | 1016.6 |
| 20260905194020 | 76 | 18 | 5.2 | 11.3 | 0.00 | 0.00 | 0.00 | 56 | 1016.5 |
| 20260905193521 | 76 | 36 | 5.2 | 9.6 | 0.00 | 0.00 | 0.00 | 56 | 1016.5 |
| 20260905193034 | 77 | 32 | 3.5 | 8.7 | 0.00 | 0.00 | 0.00 | 57 | 1016.5 |
| 20260905192518 | 76 | 16 | 3.5 | 8.7 | 0.00 | 0.00 | 0.00 | 58 | 1016.6 |
| 20260905192016 | 76 | 23 | 0.9 | 9.6 | 0.00 | 0.00 | 0.00 | 59 | 1016.4 |
| 20260905191536 | 76 | 27 | 4.3 | 9.6 | 0.00 | 0.00 | 0.00 | 58 | 1016.5 |
| 20260905191016 | 76 | 15 | 3.5 | 9.6 | 0.00 | 0.00 | 0.00 | 59 | 1016.4 |
| 20260905190516 | 76 | 18 | 3.5 | 9.6 | 0.00 | 0.00 | 0.00 | 60 | 1016.6 |
| 20260905190039 | 76 | 347 | 4.3 | 9.6 | 0.00 | 0.00 | 0.00 | 60 | 1016.6 |
| 20260905185519 | 76 | 23 | 2.6 | 9.6 | 0.00 | 0.00 | 0.00 | 61 | 1016.6 |
| 20260905185024 | 76 | 354 | 3.5 | 9.6 | 0.00 | 0.00 | 0.00 | 60 | 1016.7 |
| 20260905184541 | 76 | 83 | 1.7 | 9.6 | 0.00 | 0.00 | 0.00 | 60 | 1016.6 |
| 20260905184019 | 76 | 18 | 5.2 | 12.2 | 0.00 | 0.00 | 0.00 | 60 | 1016.7 |
| 20260905183519 | 76 | 37 | 6.1 | 12.2 | 0.00 | 0.00 | 0.00 | 57 | 1016.5 |
| 20260905183037 | 76 | 23 | 1.7 | 7.8 | 0.00 | 0.00 | 0.00 | 60 | 1016.7 |
| 20260905182518 | 76 | 17 | 1.7 | 6.1 | 0.00 | 0.00 | 0.00 | 60 | 1016.7 |
| 20260905182018 | 76 | 351 | 3.5 | 8.7 | 0.00 | 0.00 | 0.00 | 57 | 1016.7 |
| 20260905181538 | 76 | 4 | 2.6 | 8.7 | 0.00 | 0.00 | 0.00 | 59 | 1016.7 |
| 20260905181016 | 76 | 356 | 1.7 | 7.8 | 0.00 | 0.00 | 0.00 | 60 | 1016.7 |
| 20260905180518 | 76 | 69 | 3.5 | 8.7 | 0.00 | 0.00 | 0.00 | 61 | 1016.7 |
| 20260905180043 | 76 | 31 | 3.5 | 9.6 | 0.00 | 0.00 | 0.00 | 62 | 1016.6 |
| 20260905175523 | 75 | 27 | 2.6 | 11.3 | 0.00 | 0.00 | 0.00 | 63 | 1016.5 |
| 20260905175019 | 75 | 35 | 6.1 | 11.3 | 0.00 | 0.00 | 0.00 | 62 | 1016.5 |
| 20260905174537 | 76 | 72 | 1.7 | 7.0 | 0.00 | 0.00 | 0.00 | 62 | 1016.5 |
| 20260905174017 | 76 | 21 | 1.7 | 7.0 | 0.00 | 0.00 | 0.00 | 64 | 1016.6 |
| 20260905173517 | 75 | 90 | 2.6 | 8.7 | 0.00 | 0.00 | 0.00 | 65 | 1016.6 |
| 20260905173035 | 75 | 355 | 1.7 | 8.7 | 0.00 | 0.00 | 0.00 | 64 | 1016.6 |
| 20260905172516 | 75 | 359 | 4.3 | 8.7 | 0.00 | 0.00 | 0.00 | 63 | 1016.7 |
| 20260905172018 | 75 | 0 | 0.9 | 8.7 | 0.00 | 0.00 | 0.00 | 64 | 1016.7 |
| 20260905171533 | 75 | 313 | 2.6 | 8.7 | 0.00 | 0.00 | 0.00 | 64 | 1016.7 |
| 20260905171017 | 75 | 11 | 1.7 | 7.8 | 0.00 | 0.00 | 0.00 | 65 | 1016.7 |
| 20260905170517 | 75 | 339 | 3.5 | 7.8 | 0.00 | 0.00 | 0.00 | 66 | 1016.7 |
| 20260905170046 | 75 | 335 | 1.7 | 7.0 | 0.00 | 0.00 | 0.00 | 66 | 1016.9 |
| 20260905165520 | 75 | 2 | 2.6 | 7.0 | 0.00 | 0.00 | 0.00 | 66 | 1017.0 |
| 20260905165020 | 75 | 22 | 2.6 | 7.0 | 0.00 | 0.00 | 0.00 | 66 | 1016.9 |
| 20260905164535 | 74 | 15 | 2.6 | 10.4 | 0.00 | 0.00 | 0.00 | 67 | 1016.8 |
| 20260905164017 | 74 | 26 | 5.2 | 10.4 | 0.00 | 0.00 | 0.00 | 65 | 1016.8 |
| 20260905163521 | 74 | 13 | 4.3 | 9.6 | 0.00 | 0.00 | 0.00 | 66 | 1016.8 |
| 20260905163036 | 74 | 343 | 4.3 | 8.7 | 0.00 | 0.00 | 0.00 | 67 | 1016.7 |
| 20260905162519 | 74 | 101 | 4.3 | 8.7 | 0.00 | 0.00 | 0.00 | 67 | 1016.8 |
| 20260905162018 | 74 | 53 | 4.3 | 7.8 | 0.00 | 0.00 | 0.00 | 66 | 1017.0 |
| 20260905161537 | 74 | 349 | 2.6 | 7.8 | 0.00 | 0.00 | 0.00 | 68 | 1017.0 |
| 20260905161017 | 74 | 37 | 2.6 | 5.2 | 0.00 | 0.00 | 0.00 | 65 | 1016.9 |
| 20260905160517 | 74 | 0 | 0.0 | 7.0 | 0.00 | 0.00 | 0.00 | 68 | 1016.9 |
| 20260905160044 | 74 | 68 | 2.6 | 7.0 | 0.00 | 0.00 | 0.00 | 66 | 1016.9 |
| 20260905155520 | 74 | 105 | 3.5 | 7.8 | 0.00 | 0.00 | 0.00 | 64 | 1016.8 |
| 20260905155019 | 74 | 250 | 1.7 | 7.8 | 0.00 | 0.00 | 0.00 | 65 | 1016.7 |
| 20260905154536 | 73 | 44 | 1.7 | 7.8 | 0.00 | 0.00 | 0.00 | 66 | 1016.8 |
| 20260905154017 | 73 | 11 | 3.5 | 7.8 | 0.00 | 0.00 | 0.00 | 67 | 1016.8 |
| 20260905153516 | 73 | 325 | 2.6 | 7.8 | 0.00 | 0.00 | 0.00 | 67 | 1016.7 |
| 20260905153038 | 73 | 73 | 2.6 | 7.8 | 0.00 | 0.00 | 0.00 | 66 | 1016.6 |
| 20260905152518 | 73 | 7 | 2.6 | 7.8 | 0.00 | 0.00 | 0.00 | 65 | 1016.6 |
| 20260905152017 | 73 | 10 | 1.7 | 7.8 | 0.00 | 0.00 | 0.00 | 67 | 1016.5 |
| 20260905151535 | 73 | 45 | 3.5 | 8.7 | 0.00 | 0.00 | 0.00 | 66 | 1016.5 |
| 20260905151018 | 73 | 323 | 2.6 | 8.7 | 0.00 | 0.00 | 0.00 | 67 | 1016.5 |
| 20260905150519 | 73 | 43 | 3.5 | 8.7 | 0.00 | 0.00 | 0.00 | 66 | 1016.5 |
| 20260905150037 | 72 | 84 | 1.7 | 7.8 | 0.00 | 0.00 | 0.00 | 67 | 1016.4 |
| 20260905145517 | 72 | 105 | 1.7 | 7.8 | 0.00 | 0.04 | 0.00 | 68 | 1016.4 |
| 20260905145016 | 71 | 357 | 1.7 | 6.1 | 0.00 | 0.04 | 0.00 | 69 | 1016.4 |
| 20260905144541 | 71 | 10 | 0.9 | 5.2 | 0.00 | 0.04 | 0.00 | 71 | 1016.3 |
| 20260905144018 | 70 | 38 | 1.7 | 5.2 | 0.00 | 0.04 | 0.00 | 70 | 1016.4 |
| 20260905143519 | 70 | 64 | 1.7 | 6.1 | 0.00 | 0.04 | 0.00 | 74 | 1016.3 |
| 20260905143048 | 70 | 11 | 1.7 | 6.1 | 0.00 | 0.04 | 0.00 | 76 | 1016.2 |
| 20260905142517 | 69 | 56 | 2.6 | 5.2 | 0.00 | 0.04 | 0.00 | 78 | 1016.3 |
| 20260905142016 | 69 | 359 | 2.6 | 5.2 | 0.00 | 0.04 | 0.00 | 80 | 1016.2 |
| 20260905141534 | 68 | 17 | 0.9 | 6.1 | 0.00 | 0.04 | 0.00 | 80 | 1016.2 |
| 20260905141021 | 68 | 0 | 2.6 | 6.1 | 0.00 | 0.04 | 0.00 | 80 | 1016.3 |
| 20260905140521 | 68 | 77 | 0.9 | 5.2 | 0.00 | 0.04 | 0.00 | 81 | 1016.4 |
| 20260905140040 | 68 | 59 | 1.7 | 5.2 | 0.00 | 0.04 | 0.00 | 81 | 1016.4 |
| 20260905135518 | 68 | 15 | 1.7 | 5.2 | 0.00 | 0.06 | 0.00 | 82 | 1016.2 |
| 20260905135017 | 68 | 58 | 2.6 | 5.2 | 0.00 | 0.06 | 0.00 | 82 | 1016.3 |
| 20260905134536 | 68 | 347 | 0.9 | 5.2 | 0.00 | 0.06 | 0.00 | 82 | 1016.3 |
| 20260905134018 | 68 | 0 | 1.7 | 6.1 | 0.00 | 0.06 | 0.00 | 82 | 1016.4 |
| 20260905133520 | 68 | 18 | 1.7 | 6.1 | 0.00 | 0.06 | 0.00 | 82 | 1016.4 |
| 20260905133040 | 68 | 35 | 1.7 | 5.2 | 0.00 | 0.06 | 0.00 | 82 | 1016.2 |
| 20260905132519 | 68 | 56 | 0.9 | 5.2 | 0.00 | 0.06 | 0.00 | 82 | 1016.3 |
| 20260905132022 | 68 | 0 | 1.7 | 5.2 | 0.00 | 0.06 | 0.00 | 82 | 1016.5 |
| 20260905131547 | 68 | 26 | 1.7 | 3.5 | 0.00 | 0.06 | 0.00 | 82 | 1016.5 |
| 20260905131024 | 68 | 331 | 0.0 | 6.1 | 0.00 | 0.06 | 0.00 | 83 | 1016.5 |
| 20260905130519 | 68 | 0 | 0.9 | 6.1 | 0.00 | 0.06 | 0.00 | 83 | 1016.4 |
| 20260905130037 | 67 | 81 | 0.0 | 6.1 | 0.00 | 0.06 | 0.00 | 83 | 1016.2 |
| 20260905125517 | 67 | 59 | 1.7 | 4.3 | 0.00 | 0.09 | 0.00 | 83 | 1016.2 |
| 20260905125020 | 67 | 0 | 0.0 | 3.5 | 0.00 | 0.09 | 0.00 | 84 | 1016.1 |
| 20260905124542 | 67 | 0 | 0.9 | 3.5 | 0.00 | 0.09 | 0.00 | 83 | 1016.4 |
| 20260905124023 | 67 | 26 | 0.9 | 3.5 | 0.00 | 0.09 | 0.00 | 84 | 1016.4 |
| 20260905123517 | 67 | 0 | 0.0 | 1.7 | 0.00 | 0.09 | 0.00 | 85 | 1016.4 |
| 20260905123036 | 67 | 0 | 0.0 | 3.5 | 0.00 | 0.09 | 0.00 | 86 | 1016.4 |
| 20260905122519 | 67 | 0 | 0.0 | 6.1 | 0.00 | 0.09 | 0.00 | 87 | 1016.2 |
| 20260905122018 | 66 | 70 | 0.0 | 6.1 | 0.00 | 0.09 | 0.00 | 88 | 1016.2 |
| 20260905121538 | 66 | 40 | 1.7 | 6.1 | 0.00 | 0.09 | 0.00 | 88 | 1015.9 |
| 20260905121023 | 66 | 0 | 0.9 | 6.1 | 0.00 | 0.09 | 0.00 | 89 | 1015.9 |
| 20260905120518 | 66 | 79 | 1.7 | 6.1 | 0.00 | 0.09 | 0.00 | 89 | 1016.1 |
| 20260905120038 | 66 | 64 | 0.0 | 7.0 | 0.00 | 0.09 | 0.00 | 90 | 1016.1 |
| 20260905115518 | 66 | 0 | 0.9 | 7.0 | 0.00 | 0.09 | 0.00 | 91 | 1016.0 |
| 20260905115018 | 66 | 52 | 0.9 | 4.3 | 0.00 | 0.09 | 0.00 | 91 | 1016.0 |
| 20260905114543 | 66 | 0 | 0.0 | 4.3 | 0.00 | 0.09 | 0.00 | 92 | 1016.0 |
| 20260905114020 | 66 | 0 | 0.9 | 4.3 | 0.00 | 0.09 | 0.00 | 92 | 1016.0 |
| 20260905113521 | 66 | 9 | 0.9 | 5.2 | 0.00 | 0.09 | 0.00 | 92 | 1015.9 |
| 20260905113039 | 66 | 336 | 1.7 | 5.2 | 0.00 | 0.09 | 0.00 | 92 | 1016.0 |
| 20260905112518 | 66 | 45 | 1.7 | 6.1 | 0.00 | 0.09 | 0.00 | 92 | 1015.9 |
| 20260905112018 | 66 | 23 | 1.7 | 6.1 | 0.00 | 0.09 | 0.00 | 92 | 1015.8 |
| 20260905111542 | 66 | 13 | 1.7 | 6.1 | 0.00 | 0.09 | 0.00 | 92 | 1015.8 |
| 20260905111015 | 66 | 45 | 1.7 | 3.5 | 0.00 | 0.09 | 0.00 | 92 | 1015.9 |
| 20260905110517 | 66 | 13 | 0.0 | 2.6 | 0.00 | 0.09 | 0.00 | 92 | 1015.7 |
| 20260905110038 | 66 | 0 | 0.0 | 3.5 | 0.00 | 0.09 | 0.00 | 92 | 1015.7 |
| 20260905105518 | 66 | 306 | 0.0 | 3.5 | 0.00 | 0.09 | 0.00 | 92 | 1015.8 |
| 20260905105018 | 66 | 11 | 0.0 | 3.5 | 0.00 | 0.09 | 0.00 | 92 | 1015.7 |
| 20260905104537 | 66 | 0 | 0.9 | 3.5 | 0.00 | 0.09 | 0.00 | 91 | 1015.8 |
| 20260905104018 | 66 | 0 | 0.0 | 3.5 | 0.00 | 0.09 | 0.00 | 92 | 1015.9 |
| 20260905103517 | 66 | 0 | 0.0 | 3.5 | 0.00 | 0.09 | 0.00 | 92 | 1015.8 |
| 20260905103036 | 66 | 102 | 0.0 | 4.3 | 0.00 | 0.09 | 0.00 | 92 | 1015.8 |
| 20260905102519 | 66 | 0 | 0.0 | 4.3 | 0.00 | 0.09 | 0.00 | 92 | 1015.7 |
| 20260905102021 | 66 | 0 | 0.0 | 3.5 | 0.00 | 0.09 | 0.00 | 92 | 1015.6 |
| 20260905101543 | 66 | 0 | 0.0 | 3.5 | 0.00 | 0.09 | 0.00 | 92 | 1015.6 |
| 20260905101017 | 66 | 0 | 0.0 | 2.6 | 0.00 | 0.09 | 0.00 | 92 | 1015.5 |
| 20260905100518 | 66 | 2 | 0.9 | 2.6 | 0.00 | 0.09 | 0.00 | 93 | 1015.4 |
| 20260905100040 | 66 | 0 | 0.0 | 3.5 | 0.00 | 0.09 | 0.00 | 93 | 1015.4 |
| 20260905095516 | 66 | 0 | 0.0 | 4.3 | 0.00 | 0.09 | 0.00 | 93 | 1015.4 |
| 20260905095019 | 66 | 352 | 0.9 | 4.3 | 0.00 | 0.09 | 0.00 | 93 | 1015.5 |
| 20260905094537 | 66 | 67 | 0.0 | 3.5 | 0.00 | 0.09 | 0.00 | 93 | 1015.4 |
| 20260905094019 | 66 | 49 | 0.9 | 3.5 | 0.00 | 0.09 | 0.00 | 93 | 1015.6 |
| 20260905093520 | 66 | 0 | 0.9 | 3.5 | 0.00 | 0.09 | 0.00 | 93 | 1015.7 |
| 20260905093039 | 66 | 23 | 0.0 | 1.7 | 0.00 | 0.09 | 0.00 | 93 | 1015.8 |
| 20260905092516 | 66 | 0 | 0.0 | 1.7 | 0.00 | 0.09 | 0.00 | 93 | 1015.9 |
| 20260905092017 | 66 | 17 | 0.9 | 3.5 | 0.00 | 0.09 | 0.00 | 94 | 1015.8 |
| 20260905091535 | 66 | 0 | 0.0 | 3.5 | 0.00 | 0.09 | 0.00 | 94 | 1015.7 |
| 20260905091017 | 66 | 23 | 1.7 | 2.6 | 0.00 | 0.09 | 0.00 | 94 | 1015.7 |
| 20260905090519 | 66 | 0 | 0.0 | 0.9 | 0.00 | 0.09 | 0.00 | 94 | 1015.6 |
| 20260905090039 | 66 | 0 | 0.0 | 1.7 | 0.00 | 0.09 | 0.00 | 94 | 1015.5 |
| 20260905085517 | 66 | 0 | 0.0 | 1.7 | 0.00 | 0.10 | 0.00 | 94 | 1015.3 |
| 20260905085021 | 66 | 32 | 0.0 | 1.7 | 0.00 | 0.10 | 0.00 | 94 | 1015.3 |
| 20260905084541 | 66 | 359 | 0.0 | 2.6 | 0.00 | 0.10 | 0.00 | 94 | 1015.3 |
| 20260905084021 | 66 | 0 | 0.0 | 2.6 | 0.00 | 0.10 | 0.00 | 94 | 1015.2 |
| 20260905083519 | 66 | 0 | 0.9 | 2.6 | 0.00 | 0.10 | 0.00 | 94 | 1015.2 |
| 20260905083039 | 66 | 0 | 0.0 | 4.3 | 0.00 | 0.10 | 0.00 | 93 | 1015.0 |
| 20260905082517 | 66 | 0 | 0.9 | 4.3 | 0.00 | 0.10 | 0.00 | 93 | 1015.0 |
| 20260905082021 | 66 | 26 | 1.7 | 3.5 | 0.00 | 0.10 | 0.00 | 93 | 1015.0 |
| 20260905081534 | 66 | 0 | 0.0 | 2.6 | 0.00 | 0.10 | 0.00 | 93 | 1014.9 |
| 20260905081016 | 66 | 0 | 0.0 | 3.5 | 0.00 | 0.10 | 0.00 | 93 | 1015.0 |
| 20260905080516 | 66 | 35 | 1.7 | 3.5 | 0.00 | 0.10 | 0.00 | 93 | 1015.0 |
| 20260905080044 | 66 | 16 | 0.0 | 2.6 | 0.00 | 0.10 | 0.00 | 93 | 1015.0 |
| 20260905075519 | 66 | 0 | 0.0 | 2.6 | 0.00 | 0.10 | 0.00 | 93 | 1015.1 |
| 20260905075017 | 66 | 0 | 0.0 | 1.7 | 0.00 | 0.10 | 0.00 | 93 | 1015.4 |
| 20260905074538 | 66 | 0 | 0.0 | 1.7 | 0.00 | 0.10 | 0.00 | 93 | 1015.5 |
| 20260905074020 | 66 | 76 | 0.0 | 1.7 | 0.00 | 0.10 | 0.00 | 93 | 1015.4 |
| 20260905073521 | 66 | 0 | 0.0 | 2.6 | 0.00 | 0.10 | 0.00 | 93 | 1015.5 |
| 20260905073036 | 66 | 0 | 0.0 | 2.6 | 0.00 | 0.10 | 0.00 | 93 | 1015.3 |
| 20260905072518 | 66 | 13 | 0.0 | 2.6 | 0.00 | 0.10 | 0.00 | 93 | 1015.0 |
| 20260905072017 | 66 | 0 | 0.0 | 2.6 | 0.00 | 0.10 | 0.00 | 93 | 1014.9 |
| 20260905071535 | 66 | 0 | 0.0 | 2.6 | 0.00 | 0.10 | 0.00 | 93 | 1015.0 |
| 20260905071018 | 66 | 0 | 0.0 | 1.7 | 0.00 | 0.10 | 0.00 | 93 | 1015.1 |
| 20260905070516 | 66 | 0 | 0.0 | 1.7 | 0.00 | 0.10 | 0.00 | 93 | 1015.2 |
| 20260905070038 | 66 | 0 | 0.0 | 1.7 | 0.00 | 0.10 | 0.00 | 93 | 1015.1 |
| 20260905065518 | 66 | 336 | 0.0 | 0.9 | 0.00 | 0.10 | 0.00 | 93 | 1015.1 |
| 20260905065020 | 66 | 0 | 0.0 | 0.9 | 0.00 | 0.10 | 0.00 | 93 | 1014.7 |
| 20260905064538 | 66 | 0 | 0.0 | 2.6 | 0.00 | 0.10 | 0.00 | 93 | 1014.7 |
| 20260905064021 | 66 | 0 | 0.0 | 3.5 | 0.00 | 0.10 | 0.00 | 93 | 1014.8 |
| 20260905063520 | 66 | 342 | 0.9 | 3.5 | 0.00 | 0.10 | 0.00 | 93 | 1014.7 |
| 20260905063043 | 66 | 327 | 0.9 | 3.5 | 0.00 | 0.10 | 0.00 | 92 | 1014.8 |
| 20260905062520 | 66 | 6 | 0.9 | 4.3 | 0.00 | 0.10 | 0.00 | 92 | 1014.9 |
| 20260905062017 | 66 | 0 | 0.9 | 4.3 | 0.00 | 0.10 | 0.00 | 92 | 1015.0 |
| 20260905061540 | 66 | 25 | 0.0 | 5.2 | 0.00 | 0.10 | 0.00 | 91 | 1015.2 |
| 20260905061017 | 67 | 0 | 0.9 | 5.2 | 0.00 | 0.10 | 0.00 | 91 | 1015.2 |
| 20260905060520 | 67 | 37 | 0.9 | 3.5 | 0.00 | 0.10 | 0.00 | 91 | 1015.2 |
| 20260905060038 | 67 | 51 | 0.0 | 2.6 | 0.00 | 0.10 | 0.00 | 92 | 1015.2 |
| 20260905055517 | 67 | 0 | 0.0 | 2.6 | 0.00 | 0.10 | 0.00 | 92 | 1015.4 |
| 20260905055016 | 67 | 23 | 0.0 | 3.5 | 0.00 | 0.10 | 0.00 | 92 | 1015.6 |
| 20260905054535 | 67 | 18 | 0.9 | 3.5 | 0.00 | 0.10 | 0.00 | 92 | 1015.6 |
| 20260905054017 | 67 | 22 | 0.0 | 2.6 | 0.00 | 0.10 | 0.00 | 92 | 1015.8 |
| 20260905053519 | 67 | 0 | 0.0 | 0.9 | 0.00 | 0.10 | 0.00 | 93 | 1015.7 |
| 20260905053038 | 67 | 0 | 0.0 | 0.9 | 0.00 | 0.10 | 0.00 | 93 | 1015.7 |
| 20260905052522 | 67 | 0 | 0.0 | 1.7 | 0.00 | 0.10 | 0.00 | 93 | 1015.6 |
| 20260905052017 | 67 | 0 | 0.0 | 1.7 | 0.00 | 0.10 | 0.00 | 93 | 1015.5 |
| 20260905051537 | 67 | 0 | 0.0 | 2.6 | 0.00 | 0.10 | 0.00 | 94 | 1015.5 |
| 20260905051017 | 67 | 315 | 0.9 | 2.6 | 0.00 | 0.10 | 0.00 | 94 | 1015.4 |
| 20260905050522 | 67 | 18 | 0.0 | 0.9 | 0.00 | 0.10 | 0.00 | 94 | 1015.4 |